TimeCDT,TemperatureF,Dew PointF,Humidity,Sea Level PressureIn,VisibilityMPH,Wind Direction,Wind SpeedMPH,Gust SpeedMPH,PrecipitationIn,Events,Conditions,WindDirDegrees,DateUTC
12:53 AM,73.9,68.0,82,29.96,10.0,SE,5.8,-,N/A,,Clear,130,2012-10-24 05:53:00
1:53 AM,73.0,68.0,84,29.95,10.0,SE,3.5,-,N/A,,Clear,140,2012-10-24 06:53:00
2:53 AM,71.1,66.0,84,29.94,10.0,Calm,Calm,-,N/A,,Clear,0,2012-10-24 07:53:00
3:53 AM,71.1,66.9,87,29.94,9.0,East,3.5,-,N/A,,Clear,100,2012-10-24 08:53:00
5:53 AM,70.0,66.0,87,29.95,7.0,ENE,5.8,-,N/A,,Scattered Clouds,70,2012-10-24 10:53:00
6:53 AM,71.1,66.9,87,29.96,7.0,East,3.5,-,N/A,,Clear,100,2012-10-24 11:53:00
7:53 AM,71.1,68.0,90,29.97,6.0,East,4.6,-,N/A,,Clear,100,2012-10-24 12:53:00
8:53 AM,79.0,73.0,82,29.98,10.0,ESE,3.5,-,N/A,,Clear,120,2012-10-24 13:53:00
9:53 AM,82.0,71.1,69,29.99,10.0,SSE,11.5,-,N/A,,Scattered Clouds,150,2012-10-24 14:53:00
10:53 AM,84.9,70.0,61,29.99,10.0,SSE,12.7,-,N/A,,Clear,150,2012-10-24 15:53:00
11:53 AM,86.0,70.0,59,29.99,10.0,South,11.5,-,N/A,,Mostly Cloudy,170,2012-10-24 16:53:00
12:53 PM,84.0,70.0,63,29.97,10.0,SSE,9.2,-,N/A,,Scattered Clouds,160,2012-10-24 17:53:00
1:53 PM,86.0,70.0,59,29.94,10.0,South,6.9,16.1,N/A,,Clear,170,2012-10-24 18:53:00
2:53 PM,86.0,68.0,55,29.92,10.0,South,11.5,-,N/A,,Clear,170,2012-10-24 19:53:00
3:53 PM,86.0,66.0,51,29.91,10.0,SSE,11.5,-,N/A,,Clear,160,2012-10-24 20:53:00
4:53 PM,84.9,69.1,59,29.90,10.0,SSE,13.8,-,N/A,,Clear,160,2012-10-24 21:53:00
5:53 PM,82.9,70.0,65,29.90,10.0,SE,13.8,-,N/A,,Partly Cloudy,130,2012-10-24 22:53:00
6:53 PM,81.0,70.0,69,29.90,10.0,ESE,11.5,-,N/A,,Partly Cloudy,120,2012-10-24 23:53:00
7:53 PM,79.0,70.0,74,29.91,10.0,SE,8.1,-,N/A,,Clear,130,2012-10-25 00:53:00
8:53 PM,79.0,72.0,79,29.92,10.0,ESE,8.1,-,N/A,,Clear,120,2012-10-25 01:53:00
9:53 PM,78.1,72.0,81,29.91,10.0,ESE,8.1,-,N/A,,Clear,120,2012-10-25 02:53:00
10:53 PM,78.1,72.0,81,29.91,10.0,SE,8.1,-,N/A,,Clear,130,2012-10-25 03:53:00
11:53 PM,78.1,73.0,84,29.89,10.0,SE,9.2,-,N/A,,Clear,130,2012-10-25 04:53:00